This is the latest recevied weather packets stored in our database for station/object DM4XI-13. If no packets are shown the sender has not sent any weather packets the latest 10 day(s).
| Time | Temp. | Humidity | Pressure | Rain* | Wind** | Luminosity | Snow |
|---|---|---|---|---|---|---|---|
| 1778322920 | 20° C | 50% | 1016.4 hPa | 0 mm | 0.89 m/s, 168° | 649 W/m² | - |
| 1778322860 | 20° C | 49% | 1016.5 hPa | 0 mm | 0.89 m/s, 152° | 663 W/m² | - |
| 1778322798 | 20° C | 50% | 1016.4 hPa | 0 mm | 0.89 m/s, 172° | 672 W/m² | - |
| 1778322737 | 20° C | 51% | 1016.5 hPa | 0 mm | 1.34 m/s, 338° | 669 W/m² | - |
| 1778322677 | 20° C | 50% | 1016.5 hPa | 0 mm | 0.89 m/s, 294° | 661 W/m² | - |
| 1778322616 | 20° C | 50% | 1016.5 hPa | 0 mm | 0.45 m/s, 34° | 651 W/m² | - |
| 1778322555 | 19.44° C | 51% | 1016.5 hPa | 0 mm | 0.45 m/s, 249° | 663 W/m² | - |
| 1778322494 | 18.89° C | 55% | 1016.4 hPa | 0 mm | 0.45 m/s, 202° | 660 W/m² | - |
| 1778322393 | 18.33° C | 56% | 1016.3 hPa | 0 mm | 0.45 m/s, 326° | 665 W/m² | - |
| 1778322274 | 18.33° C | 56% | 1016.3 hPa | 0 mm | 0.45 m/s, 326° | 665 W/m² | - |
| 1778322196 | 18.33° C | 54% | 1016.6 hPa | 0 mm | 0 m/s | 665 W/m² | - |
| 1778322135 | 18.33° C | 55% | 1016.3 hPa | 0 mm | 0 m/s | 668 W/m² | - |
| 1778322074 | 18.33° C | 54% | 1016.6 hPa | 0 mm | 0.45 m/s, 221° | 663 W/m² | - |
| 1778322013 | 18.89° C | 55% | 1016.5 hPa | 0 mm | 0.45 m/s, 287° | 657 W/m² | - |
| 1778321950 | 18.89° C | 54% | 1016.4 hPa | 0 mm | 0.89 m/s, 5° | 654 W/m² | - |
| 1778321889 | 18.89° C | 55% | 1016.6 hPa | 0 mm | 0.45 m/s, 322° | 643 W/m² | - |
| 1778321828 | 18.89° C | 53% | 1016.6 hPa | 0 mm | 1.34 m/s, 247° | 634 W/m² | - |
| 1778321768 | 18.89° C | 53% | 1016.6 hPa | 0 mm | 0.89 m/s, 233° | 627 W/m² | - |
| 1778321707 | 18.89° C | 54% | 1016.5 hPa | 0 mm | 0.45 m/s, 213° | 623 W/m² | - |
| 1778321645 | 18.89° C | 54% | 1016.6 hPa | 0 mm | 0.45 m/s, 287° | 618 W/m² | - |
| 1778321584 | 18.89° C | 55% | 1016.6 hPa | 0 mm | 0.45 m/s, 140° | 612 W/m² | - |
| 1778321524 | 18.33° C | 56% | 1016.6 hPa | 0 mm | 0.89 m/s, 356° | 614 W/m² | - |
| 1778321462 | 18.33° C | 57% | 1016.5 hPa | 0 mm | 0 m/s | 618 W/m² | - |
| 1778321401 | 18.33° C | 54% | 1016.4 hPa | 0 mm | 0.45 m/s, 204° | 621 W/m² | - |
| 1778321340 | 18.33° C | 55% | 1016.7 hPa | 0 mm | 0.89 m/s, 172° | 614 W/m² | - |
* Rain latest hour (hover to see other rain measurements)
** Current wind speed in m/s (hover to see current wind gust speed)